O'Neill, NE

3:39 PM CDT on March 23, 2017 (GMT -0500)
The O'Neill Municipal-Baker

Weather History for KONL - April, 2013

Change the Weather History Date:

Thursday, April 4, 2013

  Actual Average Record
Temperature  
Mean Temperature 46 °F -  
Max Temperature 57 °F 53 °F 81 °F (1959)
Min Temperature 36 °F 29 °F 17 °F (1968)
Degree Days  
Heating Degree Days 18    
Moisture  
Dew Point 25 °F    
Average Humidity 49    
Maximum Humidity 81    
Minimum Humidity 19    
Precipitation  
Precipitation 0.00 in - - ()
Sea Level Pressure  
Sea Level Pressure 30.12 in    
Wind  
Wind Speed 13 mph (North)    
Max Wind Speed 23 mph    
Max Gust Speed 30 mph    
Visibility 10 miles    
Events      
Averages and records for this station are not official NWS values.
T = Trace of Precipitation, MM = Missing Value Source: NWS Daily Summary

Daily Weather History Graph

Daily Weather History Graph

Search for Another Location

Airport or City:

Trip Planner

Search our weather history database for the weather conditions in past years. The results will help you decide how hot, cold, wet, or windy it might be!

Date:

Astronomy

Apr. 04, 2013 Rise Set
Actual Time 7:11 AM CDT 8:04 PM CDT
Civil Twilight 6:42 AM CDT 8:33 PM CDT
Nautical Twilight 6:09 AM CDT 9:07 PM CDT
Astronomical Twilight 5:33 AM CDT 9:42 PM CDT
Moon 3:46 AM CDT (4/4) 2:17 PM CDT (4/4)
Length of Visible Light 13h 50m
Length of Day
12h 52m
Waning Crescent, 33% of the Moon is Illuminated
Apr 4
Waning Crescent
Apr 10
New
Apr 18
First Quarter
Apr 25
Full
May 2
Last Quarter

Hourly Weather History & Observations

Time (CDT) Temp. Windchill Dew Point Humidity Pressure Visibility Wind Dir Wind Speed Gust Speed Precip Events Conditions
12:15 AM 43.3 °F 35.8 °F 27.9 °F 54% 30.10 in 10.0 mi SSW 16.1 mph - N/A   Clear
12:35 AM 42.6 °F 36.3 °F 28.4 °F 57% 30.10 in 10.0 mi SSW 11.5 mph - N/A   Scattered Clouds
12:55 AM 42.4 °F 35.3 °F 29.1 °F 59% 30.10 in 10.0 mi SSW 13.8 mph 18.4 mph N/A   Scattered Clouds
1:15 AM 42.8 °F 35.1 °F 29.3 °F 59% 30.09 in 10.0 mi SSW 16.1 mph 20.7 mph N/A   Mostly Cloudy
1:35 AM 41.9 °F 34.0 °F 29.7 °F 62% 30.10 in 10.0 mi SW 16.1 mph 21.9 mph N/A   Scattered Clouds
1:55 AM 41.5 °F 33.5 °F 29.8 °F 63% 30.10 in 10.0 mi SSW 16.1 mph - N/A   Scattered Clouds
2:15 AM 41.9 °F 33.7 °F 30.0 °F 63% 30.09 in 10.0 mi SSW 17.3 mph - N/A   Overcast
2:35 AM 41.9 °F 34.3 °F 30.6 °F 64% 30.09 in 10.0 mi SW 15.0 mph - N/A   Overcast
2:55 AM 41.9 °F 34.0 °F 30.9 °F 65% 30.09 in 10.0 mi SW 16.1 mph - N/A   Overcast
3:15 AM 41.9 °F 34.0 °F 31.1 °F 66% 30.08 in 10.0 mi SW 16.1 mph - N/A   Scattered Clouds
3:35 AM 41.7 °F 34.8 °F 31.3 °F 66% 30.08 in 10.0 mi SW 12.7 mph 21.9 mph N/A   Clear
3:55 AM 41.2 °F 35.0 °F 31.5 °F 68% 30.09 in 10.0 mi WSW 10.4 mph - N/A   Scattered Clouds
4:15 AM 41.0 °F 34.7 °F 31.6 °F 69% 30.08 in 10.0 mi WSW 10.4 mph - N/A   Scattered Clouds
4:35 AM 40.3 °F 33.4 °F 31.5 °F 71% 30.08 in 10.0 mi WSW 11.5 mph - N/A   Scattered Clouds
4:55 AM 39.6 °F 33.5 °F 31.3 °F 72% 30.07 in 10.0 mi SW 9.2 mph - N/A   Scattered Clouds
5:15 AM 39.2 °F 32.5 °F 31.6 °F 74% 30.07 in 10.0 mi SW 10.4 mph - N/A   Mostly Cloudy
5:35 AM 39.6 °F 33.5 °F 31.8 °F 74% 30.08 in 10.0 mi WSW 9.2 mph - N/A   Mostly Cloudy
5:55 AM 39.6 °F 32.5 °F 31.8 °F 74% 30.08 in 10.0 mi West 11.5 mph - N/A   Mostly Cloudy
6:15 AM 39.0 °F 29.9 °F 31.8 °F 75% 30.09 in 10.0 mi NW 17.3 mph 21.9 mph N/A   Scattered Clouds
6:35 AM 38.1 °F 29.5 °F 31.6 °F 77% 30.10 in 10.0 mi NW 15.0 mph 23.0 mph N/A   Clear
6:55 AM 37.4 °F 28.5 °F 31.3 °F 79% 30.10 in 10.0 mi NNW 15.0 mph 18.4 mph N/A   Clear
7:15 AM 37.8 °F 31.3 °F 31.6 °F 79% 30.11 in 10.0 mi NW 9.2 mph - N/A   Scattered Clouds
7:35 AM 36.7 °F 29.4 °F 31.3 °F 81% 30.12 in 10.0 mi NW 10.4 mph - N/A   Scattered Clouds
7:55 AM 36.7 °F 28.4 °F 31.1 °F 80% 30.13 in 10.0 mi NNW 12.7 mph - N/A   Clear
8:15 AM 37.4 °F 28.2 °F 28.9 °F 71% 30.14 in 10.0 mi NNW 16.1 mph - N/A   Clear
8:35 AM 38.5 °F 29.9 °F 27.1 °F 64% 30.14 in 10.0 mi North 15.0 mph 20.7 mph N/A   Clear
8:55 AM 39.7 °F 30.0 °F 27.9 °F 63% 30.14 in 10.0 mi North 20.7 mph 24.2 mph N/A   Clear
9:15 AM 39.6 °F 29.2 °F 28.8 °F 65% 30.14 in 10.0 mi North 23.0 mph 27.6 mph N/A   Clear
9:35 AM 40.8 °F 31.4 °F 28.2 °F 61% 30.15 in 10.0 mi North 20.7 mph 29.9 mph N/A   Clear
9:55 AM 42.3 °F 34.4 °F 27.7 °F 56% 30.15 in 10.0 mi North 16.1 mph 20.7 mph N/A   Clear
10:15 AM 43.5 °F 36.1 °F 27.5 °F 53% 30.16 in 10.0 mi North 16.1 mph 20.7 mph N/A   Clear
10:35 AM 44.4 °F 36.6 °F 27.5 °F 52% 30.17 in 10.0 mi North 18.4 mph 24.2 mph N/A   Clear
10:55 AM 45.3 °F 38.7 °F 25.3 °F 46% 30.17 in 10.0 mi North 15.0 mph 23.0 mph N/A   Clear
11:35 AM 47.3 °F - 24.1 °F 40% 30.17 in 10.0 mi North 17.3 mph - N/A   Clear
11:55 AM 48.0 °F - 25.3 °F 41% 30.17 in 10.0 mi North 12.7 mph 20.7 mph N/A   Clear
12:15 PM 48.9 °F - 25.5 °F 40% 30.17 in 10.0 mi North 16.1 mph 20.7 mph N/A   Clear
12:35 PM 49.6 °F - 25.5 °F 39% 30.17 in 10.0 mi North 16.1 mph 19.6 mph N/A   Clear
12:55 PM 50.9 °F - 23.7 °F 35% 30.16 in 10.0 mi NNE 13.8 mph 19.6 mph N/A   Clear
1:15 PM 51.3 °F - 23.0 °F 33% 30.16 in 10.0 mi North 11.5 mph 20.7 mph N/A   Clear
1:35 PM 51.8 °F - 20.3 °F 29% 30.15 in 10.0 mi North 15.0 mph 19.6 mph N/A   Clear
1:55 PM 53.6 °F - 20.7 °F 28% 30.15 in 10.0 mi NE 12.7 mph - N/A   Clear
2:15 PM 54.1 °F - 20.1 °F 26% 30.14 in 10.0 mi North 15.0 mph 19.6 mph N/A   Clear
2:35 PM 55.2 °F - 20.5 °F 26% 30.14 in 10.0 mi NNE 9.2 mph 17.3 mph N/A   Clear
2:55 PM 55.4 °F - 16.7 °F 22% 30.13 in 10.0 mi North 11.5 mph 18.4 mph N/A   Clear
3:15 PM 55.4 °F - 13.6 °F 19% 30.13 in 10.0 mi NNE 12.7 mph - N/A   Clear
3:35 PM 55.6 °F - 19.2 °F 24% 30.12 in 10.0 mi North 10.4 mph - N/A   Clear
3:55 PM 56.3 °F - 20.7 °F 25% 30.12 in 10.0 mi NNE 11.5 mph 16.1 mph N/A   Clear
4:15 PM 55.9 °F - 20.5 °F 25% 30.12 in 10.0 mi NNE 11.5 mph - N/A   Clear
4:35 PM 57.0 °F - 21.6 °F 25% 30.12 in 10.0 mi NNE 11.5 mph - N/A   Clear
4:55 PM 55.9 °F - 21.2 °F 26% 30.12 in 10.0 mi NNE 8.1 mph - N/A   Clear
5:15 PM 56.1 °F - 21.2 °F 26% 30.12 in 10.0 mi North 9.2 mph - N/A   Clear
5:35 PM 56.3 °F - 20.5 °F 25% 30.12 in 10.0 mi NE 8.1 mph - N/A   Clear
5:55 PM 55.8 °F - 19.2 °F 24% 30.12 in 10.0 mi NE 10.4 mph - N/A   Clear
6:15 PM 55.8 °F - 18.5 °F 23% 30.12 in 10.0 mi NNE 9.2 mph - N/A   Clear
6:35 PM 55.4 °F - 18.0 °F 23% 30.12 in 10.0 mi NE 8.1 mph - N/A   Clear
6:55 PM 54.9 °F - 18.5 °F 24% 30.12 in 10.0 mi NE 6.9 mph - N/A   Clear
7:15 PM 54.0 °F - 18.0 °F 24% 30.11 in 10.0 mi ENE 8.1 mph - N/A   Clear
7:35 PM 52.7 °F - 19.4 °F 27% 30.11 in 10.0 mi ENE 5.8 mph - N/A   Clear
7:55 PM 49.6 °F - 20.1 °F 31% 30.11 in 10.0 mi NE 5.8 mph - N/A   Clear
8:15 PM 47.7 °F - 19.9 °F 33% 30.12 in 10.0 mi NE 5.8 mph - N/A   Clear
8:35 PM 46.6 °F - 19.8 °F 34% 30.12 in 10.0 mi ENE 4.6 mph - N/A   Clear
8:55 PM 45.5 °F 42.5 °F 20.8 °F 38% 30.12 in 10.0 mi NE 5.8 mph - N/A   Clear
9:15 PM 43.7 °F 40.3 °F 21.4 °F 41% 30.12 in 10.0 mi NE 5.8 mph - N/A   Clear
9:35 PM 43.2 °F 37.4 °F 24.6 °F 48% 30.14 in 10.0 mi NE 10.4 mph - N/A   Clear
9:55 PM 41.9 °F 35.9 °F 25.2 °F 52% 30.14 in 10.0 mi NE 10.4 mph - N/A   Clear
10:15 PM 40.6 °F 35.4 °F 25.5 °F 55% 30.14 in 10.0 mi NE 8.1 mph - N/A   Clear
10:35 PM 40.3 °F 34.4 °F 25.5 °F 56% 30.13 in 10.0 mi NE 9.2 mph - N/A   Clear
10:55 PM 39.6 °F 34.0 °F 25.7 °F 58% 30.13 in 10.0 mi ENE 8.1 mph - N/A   Clear
11:15 PM 39.2 °F 33.0 °F 25.5 °F 58% 30.12 in 10.0 mi ENE 9.2 mph - N/A   Clear
11:35 PM 38.5 °F 32.1 °F 25.7 °F 60% 30.12 in 10.0 mi ENE 9.2 mph - N/A   Clear
11:55 PM 36.7 °F 30.5 °F 25.7 °F 64% 30.11 in 10.0 mi ENE 8.1 mph - N/A   Clear